owner,sensor,date,latitude,longitude,air_pressure(mBar),qcFlag 
WAVCIS,ioos:station:WAVCIS:CSI06:1,2008-12-01T00:00:00Z,28.8667,-90.4833,1006.939,11111222 
WAVCIS,ioos:station:WAVCIS:CSI06:1,2008-12-01T01:00:00Z,28.8667,-90.4833,1007.87,11111222 
WAVCIS,ioos:station:WAVCIS:CSI06:1,2008-12-01T02:00:00Z,28.8667,-90.4833,1009.44,11111222 
WAVCIS,ioos:station:WAVCIS:CSI06:1,2008-12-01T03:00:00Z,28.8667,-90.4833,1010.87,11111222 
WAVCIS,ioos:station:WAVCIS:CSI06:1,2008-12-01T04:00:00Z,28.8667,-90.4833,1011.53,11111222 
WAVCIS,ioos:station:WAVCIS:CSI06:1,2008-12-01T05:00:00Z,28.8667,-90.4833,1012.3,11111222 
WAVCIS,ioos:station:WAVCIS:CSI06:1,2008-12-01T06:00:00Z,28.8667,-90.4833,1012.41,11111222 
WAVCIS,ioos:station:WAVCIS:CSI06:1,2008-12-01T07:00:00Z,28.8667,-90.4833,1012.82,11111222 
WAVCIS,ioos:station:WAVCIS:CSI06:1,2008-12-01T08:00:00Z,28.8667,-90.4833,1012.8,11111222 
WAVCIS,ioos:station:WAVCIS:CSI06:1,2008-12-01T09:00:00Z,28.8667,-90.4833,1013.04,11111222 
WAVCIS,ioos:station:WAVCIS:CSI06:1,2008-12-01T10:00:00Z,28.8667,-90.4833,1013.68,11111222 
WAVCIS,ioos:station:WAVCIS:CSI06:1,2008-12-01T11:00:00Z,28.8667,-90.4833,1014.0,11111222 
WAVCIS,ioos:station:WAVCIS:CSI06:1,2008-12-01T12:00:00Z,28.8667,-90.4833,1014.37,11111222 
WAVCIS,ioos:station:WAVCIS:CSI06:1,2008-12-01T13:00:00Z,28.8667,-90.4833,1015.39,11111222 
WAVCIS,ioos:station:WAVCIS:CSI06:1,2008-12-01T14:00:00Z,28.8667,-90.4833,1016.42,11111222 
WAVCIS,ioos:station:WAVCIS:CSI06:1,2008-12-01T15:00:00Z,28.8667,-90.4833,1016.63,11111222 
WAVCIS,ioos:station:WAVCIS:CSI06:1,2008-12-01T16:00:00Z,28.8667,-90.4833,1016.85,11111222 
WAVCIS,ioos:station:WAVCIS:CSI06:1,2008-12-01T17:00:00Z,28.8667,-90.4833,1017.15,11111222 
WAVCIS,ioos:station:WAVCIS:CSI06:1,2008-12-01T18:00:00Z,28.8667,-90.4833,1017.21,11111222 
WAVCIS,ioos:station:WAVCIS:CSI06:1,2008-12-01T19:00:00Z,28.8667,-90.4833,1017.04,11111222 
WAVCIS,ioos:station:WAVCIS:CSI06:1,2008-12-01T20:00:00Z,28.8667,-90.4833,1017.26,11111222 
WAVCIS,ioos:station:WAVCIS:CSI06:1,2008-12-01T21:00:00Z,28.8667,-90.4833,1017.87,11111222 
WAVCIS,ioos:station:WAVCIS:CSI06:1,2008-12-01T22:00:00Z,28.8667,-90.4833,1018.78,11111222 
WAVCIS,ioos:station:WAVCIS:CSI06:1,2008-12-01T23:00:00Z,28.8667,-90.4833,1019.83,11111222 
WAVCIS,ioos:station:WAVCIS:CSI06:1,2008-12-02T00:00:00Z,28.8667,-90.4833,1020.77,11111222 
WAVCIS,ioos:station:WAVCIS:CSI06:1,2008-12-02T01:00:00Z,28.8667,-90.4833,1022.02,11111222 
WAVCIS,ioos:station:WAVCIS:CSI06:1,2008-12-02T02:00:00Z,28.8667,-90.4833,1022.99,11111222 
WAVCIS,ioos:station:WAVCIS:CSI06:1,2008-12-02T03:00:00Z,28.8667,-90.4833,1023.86,11111222 
WAVCIS,ioos:station:WAVCIS:CSI06:1,2008-12-02T04:00:00Z,28.8667,-90.4833,1025.13,11111222 
WAVCIS,ioos:station:WAVCIS:CSI06:1,2008-12-02T05:00:00Z,28.8667,-90.4833,1025.66,11111222 
WAVCIS,ioos:station:WAVCIS:CSI06:1,2008-12-02T06:00:00Z,28.8667,-90.4833,1025.72,11111222 
WAVCIS,ioos:station:WAVCIS:CSI06:1,2008-12-02T07:00:00Z,28.8667,-90.4833,1025.99,11111222 
WAVCIS,ioos:station:WAVCIS:CSI06:1,2008-12-02T08:00:00Z,28.8667,-90.4833,1026.09,11111222 
WAVCIS,ioos:station:WAVCIS:CSI06:1,2008-12-02T09:00:00Z,28.8667,-90.4833,1026.06,11111222 
WAVCIS,ioos:station:WAVCIS:CSI06:1,2008-12-02T10:00:00Z,28.8667,-90.4833,1026.39,11111222 
WAVCIS,ioos:station:WAVCIS:CSI06:1,2008-12-02T11:00:00Z,28.8667,-90.4833,1026.71,11111222 
WAVCIS,ioos:station:WAVCIS:CSI06:1,2008-12-02T12:00:00Z,28.8667,-90.4833,1026.97,11111222 
WAVCIS,ioos:station:WAVCIS:CSI06:1,2008-12-02T13:00:00Z,28.8667,-90.4833,1027.04,11111222 
WAVCIS,ioos:station:WAVCIS:CSI06:1,2008-12-02T14:00:00Z,28.8667,-90.4833,1027.29,11111222 
WAVCIS,ioos:station:WAVCIS:CSI06:1,2008-12-02T15:00:00Z,28.8667,-90.4833,1027.94,11111222 
WAVCIS,ioos:station:WAVCIS:CSI06:1,2008-12-02T16:00:00Z,28.8667,-90.4833,1028.37,11111222 
WAVCIS,ioos:station:WAVCIS:CSI06:1,2008-12-02T17:00:00Z,28.8667,-90.4833,1027.9,11111222 
WAVCIS,ioos:station:WAVCIS:CSI06:1,2008-12-02T18:00:00Z,28.8667,-90.4833,1026.87,11111222 
WAVCIS,ioos:station:WAVCIS:CSI06:1,2008-12-02T19:00:00Z,28.8667,-90.4833,1026.05,11111222 
WAVCIS,ioos:station:WAVCIS:CSI06:1,2008-12-02T20:00:00Z,28.8667,-90.4833,1025.57,11111222 
WAVCIS,ioos:station:WAVCIS:CSI06:1,2008-12-02T21:00:00Z,28.8667,-90.4833,1025.07,11111222 
WAVCIS,ioos:station:WAVCIS:CSI06:1,2008-12-02T22:00:00Z,28.8667,-90.4833,1024.59,11111222 
WAVCIS,ioos:station:WAVCIS:CSI06:1,2008-12-02T23:00:00Z,28.8667,-90.4833,1024.3,11111222 
WAVCIS,ioos:station:WAVCIS:CSI06:1,2008-12-03T00:00:00Z,28.8667,-90.4833,1024.19,11111222 
WAVCIS,ioos:station:WAVCIS:CSI06:1,2008-12-03T01:00:00Z,28.8667,-90.4833,1024.06,11111222 
WAVCIS,ioos:station:WAVCIS:CSI06:1,2008-12-03T02:00:00Z,28.8667,-90.4833,1024.23,11111222 
WAVCIS,ioos:station:WAVCIS:CSI06:1,2008-12-03T03:00:00Z,28.8667,-90.4833,1024.05,11111222 
WAVCIS,ioos:station:WAVCIS:CSI06:1,2008-12-03T04:00:00Z,28.8667,-90.4833,1023.82,11111222 
WAVCIS,ioos:station:WAVCIS:CSI06:1,2008-12-03T05:00:00Z,28.8667,-90.4833,1023.43,11111222 
WAVCIS,ioos:station:WAVCIS:CSI06:1,2008-12-03T06:00:00Z,28.8667,-90.4833,1022.7,11111222 
WAVCIS,ioos:station:WAVCIS:CSI06:1,2008-12-03T07:00:00Z,28.8667,-90.4833,1021.78,11111222 
WAVCIS,ioos:station:WAVCIS:CSI06:1,2008-12-03T08:00:00Z,28.8667,-90.4833,1021.32,11111222 
WAVCIS,ioos:station:WAVCIS:CSI06:1,2008-12-03T09:00:00Z,28.8667,-90.4833,1021.1,11111222 
WAVCIS,ioos:station:WAVCIS:CSI06:1,2008-12-03T10:00:00Z,28.8667,-90.4833,1021.28,11111222 
WAVCIS,ioos:station:WAVCIS:CSI06:1,2008-12-03T11:00:00Z,28.8667,-90.4833,1021.18,11111222 
WAVCIS,ioos:station:WAVCIS:CSI06:1,2008-12-03T12:00:00Z,28.8667,-90.4833,1021.04,11111222 
WAVCIS,ioos:station:WAVCIS:CSI06:1,2008-12-03T13:00:00Z,28.8667,-90.4833,1021.36,11111222 
WAVCIS,ioos:station:WAVCIS:CSI06:1,2008-12-03T14:00:00Z,28.8667,-90.4833,1021.47,11111222 
WAVCIS,ioos:station:WAVCIS:CSI06:1,2008-12-03T15:00:00Z,28.8667,-90.4833,1022.01,11111222 
WAVCIS,ioos:station:WAVCIS:CSI06:1,2008-12-03T16:00:00Z,28.8667,-90.4833,1022.02,11111222 
WAVCIS,ioos:station:WAVCIS:CSI06:1,2008-12-03T17:00:00Z,28.8667,-90.4833,1021.79,11111222 
WAVCIS,ioos:station:WAVCIS:CSI06:1,2008-12-03T18:00:00Z,28.8667,-90.4833,1020.88,11111222 
WAVCIS,ioos:station:WAVCIS:CSI06:1,2008-12-03T19:00:00Z,28.8667,-90.4833,1020.13,11111222 
WAVCIS,ioos:station:WAVCIS:CSI06:1,2008-12-03T20:00:00Z,28.8667,-90.4833,1019.64,11111222 
WAVCIS,ioos:station:WAVCIS:CSI06:1,2008-12-03T21:00:00Z,28.8667,-90.4833,1019.26,11111222 
WAVCIS,ioos:station:WAVCIS:CSI06:1,2008-12-03T22:00:00Z,28.8667,-90.4833,1018.88,11111222 
WAVCIS,ioos:station:WAVCIS:CSI06:1,2008-12-03T23:00:00Z,28.8667,-90.4833,1019.02,11111222 
WAVCIS,ioos:station:WAVCIS:CSI06:1,2008-12-04T00:00:00Z,28.8667,-90.4833,1019.24,11111222 
WAVCIS,ioos:station:WAVCIS:CSI06:1,2008-12-04T01:00:00Z,28.8667,-90.4833,1019.96,11111222 
WAVCIS,ioos:station:WAVCIS:CSI06:1,2008-12-04T02:00:00Z,28.8667,-90.4833,1019.65,11111222 
WAVCIS,ioos:station:WAVCIS:CSI06:1,2008-12-04T03:00:00Z,28.8667,-90.4833,1019.55,11111222 
WAVCIS,ioos:station:WAVCIS:CSI06:1,2008-12-04T04:00:00Z,28.8667,-90.4833,1019.48,11111222 
WAVCIS,ioos:station:WAVCIS:CSI06:1,2008-12-04T05:00:00Z,28.8667,-90.4833,1018.84,11111222 
WAVCIS,ioos:station:WAVCIS:CSI06:1,2008-12-04T06:00:00Z,28.8667,-90.4833,1018.56,11111222 
WAVCIS,ioos:station:WAVCIS:CSI06:1,2008-12-04T07:00:00Z,28.8667,-90.4833,1018.26,11111222 
WAVCIS,ioos:station:WAVCIS:CSI06:1,2008-12-04T08:00:00Z,28.8667,-90.4833,1018.1,11111222 
WAVCIS,ioos:station:WAVCIS:CSI06:1,2008-12-04T09:00:00Z,28.8667,-90.4833,1017.79,11111222 
WAVCIS,ioos:station:WAVCIS:CSI06:1,2008-12-04T10:00:00Z,28.8667,-90.4833,1017.33,11111222 
WAVCIS,ioos:station:WAVCIS:CSI06:1,2008-12-04T11:00:00Z,28.8667,-90.4833,1017.37,11111222 
WAVCIS,ioos:station:WAVCIS:CSI06:1,2008-12-04T12:00:00Z,28.8667,-90.4833,1017.69,11111222 
WAVCIS,ioos:station:WAVCIS:CSI06:1,2008-12-04T13:00:00Z,28.8667,-90.4833,1018.27,11111222 
WAVCIS,ioos:station:WAVCIS:CSI06:1,2008-12-04T14:00:00Z,28.8667,-90.4833,1018.53,11111222 
WAVCIS,ioos:station:WAVCIS:CSI06:1,2008-12-04T15:00:00Z,28.8667,-90.4833,1019.77,11111222 
WAVCIS,ioos:station:WAVCIS:CSI06:1,2008-12-04T16:00:00Z,28.8667,-90.4833,1019.94,11111222 
WAVCIS,ioos:station:WAVCIS:CSI06:1,2008-12-04T17:00:00Z,28.8667,-90.4833,1019.97,11111222 
WAVCIS,ioos:station:WAVCIS:CSI06:1,2008-12-04T18:00:00Z,28.8667,-90.4833,1019.45,11111222 
WAVCIS,ioos:station:WAVCIS:CSI06:1,2008-12-04T19:00:00Z,28.8667,-90.4833,1018.79,11111222 
WAVCIS,ioos:station:WAVCIS:CSI06:1,2008-12-04T20:00:00Z,28.8667,-90.4833,1018.78,11111222 
WAVCIS,ioos:station:WAVCIS:CSI06:1,2008-12-04T21:00:00Z,28.8667,-90.4833,1018.89,11111222 
WAVCIS,ioos:station:WAVCIS:CSI06:1,2008-12-04T22:00:00Z,28.8667,-90.4833,1019.53,11111222 
WAVCIS,ioos:station:WAVCIS:CSI06:1,2008-12-04T23:00:00Z,28.8667,-90.4833,1020.47,11111222 
WAVCIS,ioos:station:WAVCIS:CSI06:1,2008-12-05T00:00:00Z,28.8667,-90.4833,1021.27,11111222 
WAVCIS,ioos:station:WAVCIS:CSI06:1,2008-12-05T01:00:00Z,28.8667,-90.4833,1021.9,11111222 
WAVCIS,ioos:station:WAVCIS:CSI06:1,2008-12-05T02:00:00Z,28.8667,-90.4833,1022.88,11111222 
WAVCIS,ioos:station:WAVCIS:CSI06:1,2008-12-05T03:00:00Z,28.8667,-90.4833,1023.32,11111222 
WAVCIS,ioos:station:WAVCIS:CSI06:1,2008-12-05T04:00:00Z,28.8667,-90.4833,1023.77,11111222 
WAVCIS,ioos:station:WAVCIS:CSI06:1,2008-12-05T05:00:00Z,28.8667,-90.4833,1024.0,11111222 
WAVCIS,ioos:station:WAVCIS:CSI06:1,2008-12-05T06:00:00Z,28.8667,-90.4833,1023.82,11111222 
WAVCIS,ioos:station:WAVCIS:CSI06:1,2008-12-05T07:00:00Z,28.8667,-90.4833,1023.9,11111222 
WAVCIS,ioos:station:WAVCIS:CSI06:1,2008-12-05T08:00:00Z,28.8667,-90.4833,1023.82,11111222 
WAVCIS,ioos:station:WAVCIS:CSI06:1,2008-12-05T09:00:00Z,28.8667,-90.4833,1024.14,11111222 
WAVCIS,ioos:station:WAVCIS:CSI06:1,2008-12-05T10:00:00Z,28.8667,-90.4833,1023.51,11111222 
WAVCIS,ioos:station:WAVCIS:CSI06:1,2008-12-05T11:00:00Z,28.8667,-90.4833,1023.93,11111222 
WAVCIS,ioos:station:WAVCIS:CSI06:1,2008-12-05T12:00:00Z,28.8667,-90.4833,1024.25,11111222 
WAVCIS,ioos:station:WAVCIS:CSI06:1,2008-12-05T13:00:00Z,28.8667,-90.4833,1024.16,11111222 
WAVCIS,ioos:station:WAVCIS:CSI06:1,2008-12-05T14:00:00Z,28.8667,-90.4833,1025.48,11111222 
WAVCIS,ioos:station:WAVCIS:CSI06:1,2008-12-05T15:00:00Z,28.8667,-90.4833,1026.21,11111222 
WAVCIS,ioos:station:WAVCIS:CSI06:1,2008-12-05T16:00:00Z,28.8667,-90.4833,1026.57,11111222 
WAVCIS,ioos:station:WAVCIS:CSI06:1,2008-12-05T17:00:00Z,28.8667,-90.4833,1026.0,11111222 
WAVCIS,ioos:station:WAVCIS:CSI06:1,2008-12-05T18:00:00Z,28.8667,-90.4833,1024.93,11111222 
WAVCIS,ioos:station:WAVCIS:CSI06:1,2008-12-05T19:00:00Z,28.8667,-90.4833,1024.2,11111222 
WAVCIS,ioos:station:WAVCIS:CSI06:1,2008-12-05T20:00:00Z,28.8667,-90.4833,1023.6,11111222 
WAVCIS,ioos:station:WAVCIS:CSI06:1,2008-12-05T21:00:00Z,28.8667,-90.4833,1023.08,11111222 
WAVCIS,ioos:station:WAVCIS:CSI06:1,2008-12-05T22:00:00Z,28.8667,-90.4833,1022.47,11111222 
WAVCIS,ioos:station:WAVCIS:CSI06:1,2008-12-05T23:00:00Z,28.8667,-90.4833,1022.08,11111222 
WAVCIS,ioos:station:WAVCIS:CSI06:1,2008-12-06T00:00:00Z,28.8667,-90.4833,1021.96,11111222 
WAVCIS,ioos:station:WAVCIS:CSI06:1,2008-12-06T01:00:00Z,28.8667,-90.4833,1022.27,11111222 
WAVCIS,ioos:station:WAVCIS:CSI06:1,2008-12-06T02:00:00Z,28.8667,-90.4833,1022.1,11111222 
WAVCIS,ioos:station:WAVCIS:CSI06:1,2008-12-06T03:00:00Z,28.8667,-90.4833,1021.94,11111222 
WAVCIS,ioos:station:WAVCIS:CSI06:1,2008-12-06T04:00:00Z,28.8667,-90.4833,1021.93,11111222 
WAVCIS,ioos:station:WAVCIS:CSI06:1,2008-12-06T05:00:00Z,28.8667,-90.4833,1021.34,11111222 
WAVCIS,ioos:station:WAVCIS:CSI06:1,2008-12-06T06:00:00Z,28.8667,-90.4833,1021.18,11111222 
WAVCIS,ioos:station:WAVCIS:CSI06:1,2008-12-06T07:00:00Z,28.8667,-90.4833,1020.74,11111222 
WAVCIS,ioos:station:WAVCIS:CSI06:1,2008-12-06T08:00:00Z,28.8667,-90.4833,1020.72,11111222 
WAVCIS,ioos:station:WAVCIS:CSI06:1,2008-12-06T09:00:00Z,28.8667,-90.4833,1019.92,11111222 
WAVCIS,ioos:station:WAVCIS:CSI06:1,2008-12-06T10:00:00Z,28.8667,-90.4833,1019.6,11111222 
WAVCIS,ioos:station:WAVCIS:CSI06:1,2008-12-06T11:00:00Z,28.8667,-90.4833,1019.27,11111222 
WAVCIS,ioos:station:WAVCIS:CSI06:1,2008-12-06T12:00:00Z,28.8667,-90.4833,1019.74,11111222 
WAVCIS,ioos:station:WAVCIS:CSI06:1,2008-12-06T13:00:00Z,28.8667,-90.4833,1020.43,11111222 
WAVCIS,ioos:station:WAVCIS:CSI06:1,2008-12-06T14:00:00Z,28.8667,-90.4833,1020.77,11111222 
WAVCIS,ioos:station:WAVCIS:CSI06:1,2008-12-06T15:00:00Z,28.8667,-90.4833,1020.83,11111222 
WAVCIS,ioos:station:WAVCIS:CSI06:1,2008-12-06T16:00:00Z,28.8667,-90.4833,1021.05,11111222 
WAVCIS,ioos:station:WAVCIS:CSI06:1,2008-12-06T17:00:00Z,28.8667,-90.4833,1021.11,11111222 
WAVCIS,ioos:station:WAVCIS:CSI06:1,2008-12-06T18:00:00Z,28.8667,-90.4833,1020.58,11111222 
WAVCIS,ioos:station:WAVCIS:CSI06:1,2008-12-06T19:00:00Z,28.8667,-90.4833,1019.81,11111222 
WAVCIS,ioos:station:WAVCIS:CSI06:1,2008-12-06T20:00:00Z,28.8667,-90.4833,1019.15,11111222 
WAVCIS,ioos:station:WAVCIS:CSI06:1,2008-12-06T21:00:00Z,28.8667,-90.4833,1018.99,11111222 
WAVCIS,ioos:station:WAVCIS:CSI06:1,2008-12-06T22:00:00Z,28.8667,-90.4833,1019.18,11111222 
WAVCIS,ioos:station:WAVCIS:CSI06:1,2008-12-06T23:00:00Z,28.8667,-90.4833,1019.34,11111222 
WAVCIS,ioos:station:WAVCIS:CSI06:1,2008-12-07T00:00:00Z,28.8667,-90.4833,1020.28,11111222 
WAVCIS,ioos:station:WAVCIS:CSI06:1,2008-12-07T01:00:00Z,28.8667,-90.4833,1020.78,11111222 
WAVCIS,ioos:station:WAVCIS:CSI06:1,2008-12-07T02:00:00Z,28.8667,-90.4833,1021.06,11111222 
WAVCIS,ioos:station:WAVCIS:CSI06:1,2008-12-07T03:00:00Z,28.8667,-90.4833,1021.7,11111222 
WAVCIS,ioos:station:WAVCIS:CSI06:1,2008-12-07T04:00:00Z,28.8667,-90.4833,1022.06,11111222 
WAVCIS,ioos:station:WAVCIS:CSI06:1,2008-12-07T05:00:00Z,28.8667,-90.4833,1022.21,11111222 
WAVCIS,ioos:station:WAVCIS:CSI06:1,2008-12-07T06:00:00Z,28.8667,-90.4833,1021.98,11111222 
WAVCIS,ioos:station:WAVCIS:CSI06:1,2008-12-07T07:00:00Z,28.8667,-90.4833,1022.46,11111222 
WAVCIS,ioos:station:WAVCIS:CSI06:1,2008-12-07T08:00:00Z,28.8667,-90.4833,1022.77,11111222 
WAVCIS,ioos:station:WAVCIS:CSI06:1,2008-12-07T09:00:00Z,28.8667,-90.4833,1022.99,11111222 
WAVCIS,ioos:station:WAVCIS:CSI06:1,2008-12-07T10:00:00Z,28.8667,-90.4833,1023.17,11111222 
WAVCIS,ioos:station:WAVCIS:CSI06:1,2008-12-07T11:00:00Z,28.8667,-90.4833,1023.22,11111222 
WAVCIS,ioos:station:WAVCIS:CSI06:1,2008-12-07T12:00:00Z,28.8667,-90.4833,1024.2,11111222 
WAVCIS,ioos:station:WAVCIS:CSI06:1,2008-12-07T13:00:00Z,28.8667,-90.4833,1024.82,11111222 
WAVCIS,ioos:station:WAVCIS:CSI06:1,2008-12-07T14:00:00Z,28.8667,-90.4833,1025.43,11111222 
WAVCIS,ioos:station:WAVCIS:CSI06:1,2008-12-07T15:00:00Z,28.8667,-90.4833,1026.28,11111222 
WAVCIS,ioos:station:WAVCIS:CSI06:1,2008-12-07T16:00:00Z,28.8667,-90.4833,1026.24,11111222 
WAVCIS,ioos:station:WAVCIS:CSI06:1,2008-12-07T17:00:00Z,28.8667,-90.4833,1025.74,11111222 
WAVCIS,ioos:station:WAVCIS:CSI06:1,2008-12-07T18:00:00Z,28.8667,-90.4833,1024.98,11111222 
WAVCIS,ioos:station:WAVCIS:CSI06:1,2008-12-07T19:00:00Z,28.8667,-90.4833,1024.05,11111222 
WAVCIS,ioos:station:WAVCIS:CSI06:1,2008-12-07T20:00:00Z,28.8667,-90.4833,1023.26,11111222 
WAVCIS,ioos:station:WAVCIS:CSI06:1,2008-12-07T21:00:00Z,28.8667,-90.4833,1023.22,11111222 
WAVCIS,ioos:station:WAVCIS:CSI06:1,2008-12-07T22:00:00Z,28.8667,-90.4833,1023.21,11111222 
WAVCIS,ioos:station:WAVCIS:CSI06:1,2008-12-07T23:00:00Z,28.8667,-90.4833,1023.12,11111222 
WAVCIS,ioos:station:WAVCIS:CSI06:1,2008-12-08T00:00:00Z,28.8667,-90.4833,1023.14,11111222 
WAVCIS,ioos:station:WAVCIS:CSI06:1,2008-12-08T01:00:00Z,28.8667,-90.4833,1023.27,11111222 
WAVCIS,ioos:station:WAVCIS:CSI06:1,2008-12-08T02:00:00Z,28.8667,-90.4833,1023.13,11111222 
WAVCIS,ioos:station:WAVCIS:CSI06:1,2008-12-08T03:00:00Z,28.8667,-90.4833,1022.8,11111222 
WAVCIS,ioos:station:WAVCIS:CSI06:1,2008-12-08T04:00:00Z,28.8667,-90.4833,1022.45,11111222 
WAVCIS,ioos:station:WAVCIS:CSI06:1,2008-12-08T05:00:00Z,28.8667,-90.4833,1022.4,11111222 
WAVCIS,ioos:station:WAVCIS:CSI06:1,2008-12-08T06:00:00Z,28.8667,-90.4833,1021.83,11111222 
WAVCIS,ioos:station:WAVCIS:CSI06:1,2008-12-08T07:00:00Z,28.8667,-90.4833,1021.4,11111222 
WAVCIS,ioos:station:WAVCIS:CSI06:1,2008-12-08T08:00:00Z,28.8667,-90.4833,1020.65,11111222 
WAVCIS,ioos:station:WAVCIS:CSI06:1,2008-12-08T09:00:00Z,28.8667,-90.4833,1020.52,11111222 
WAVCIS,ioos:station:WAVCIS:CSI06:1,2008-12-08T10:00:00Z,28.8667,-90.4833,1020.02,11111222 
WAVCIS,ioos:station:WAVCIS:CSI06:1,2008-12-08T11:00:00Z,28.8667,-90.4833,1019.98,11111222 
WAVCIS,ioos:station:WAVCIS:CSI06:1,2008-12-08T12:00:00Z,28.8667,-90.4833,1020.43,11111222 
WAVCIS,ioos:station:WAVCIS:CSI06:1,2008-12-08T13:00:00Z,28.8667,-90.4833,1020.77,11111222 
WAVCIS,ioos:station:WAVCIS:CSI06:1,2008-12-08T14:00:00Z,28.8667,-90.4833,1020.63,11111222 
WAVCIS,ioos:station:WAVCIS:CSI06:1,2008-12-08T15:00:00Z,28.8667,-90.4833,1020.29,11111222 
WAVCIS,ioos:station:WAVCIS:CSI06:1,2008-12-08T16:00:00Z,28.8667,-90.4833,1020.01,11111222 
WAVCIS,ioos:station:WAVCIS:CSI06:1,2008-12-08T17:00:00Z,28.8667,-90.4833,1019.67,11111222 
WAVCIS,ioos:station:WAVCIS:CSI06:1,2008-12-08T18:00:00Z,28.8667,-90.4833,1018.6,11111222 
WAVCIS,ioos:station:WAVCIS:CSI06:1,2008-12-08T19:00:00Z,28.8667,-90.4833,1017.26,11111222 
WAVCIS,ioos:station:WAVCIS:CSI06:1,2008-12-08T20:00:00Z,28.8667,-90.4833,1016.35,11111222 
WAVCIS,ioos:station:WAVCIS:CSI06:1,2008-12-08T21:00:00Z,28.8667,-90.4833,1015.89,11111222 
WAVCIS,ioos:station:WAVCIS:CSI06:1,2008-12-08T22:00:00Z,28.8667,-90.4833,1015.77,11111222 
WAVCIS,ioos:station:WAVCIS:CSI06:1,2008-12-08T23:00:00Z,28.8667,-90.4833,1015.73,11111222 
WAVCIS,ioos:station:WAVCIS:CSI06:1,2008-12-09T00:00:00Z,28.8667,-90.4833,1015.33,11111222 
WAVCIS,ioos:station:WAVCIS:CSI06:1,2008-12-09T01:00:00Z,28.8667,-90.4833,1014.94,11111222 
WAVCIS,ioos:station:WAVCIS:CSI06:1,2008-12-09T02:00:00Z,28.8667,-90.4833,1015.42,11111222 
WAVCIS,ioos:station:WAVCIS:CSI06:1,2008-12-09T03:00:00Z,28.8667,-90.4833,1014.35,11111222 
WAVCIS,ioos:station:WAVCIS:CSI06:1,2008-12-09T04:00:00Z,28.8667,-90.4833,1014.97,11111222 
WAVCIS,ioos:station:WAVCIS:CSI06:1,2008-12-09T05:00:00Z,28.8667,-90.4833,1015.07,11111222 
WAVCIS,ioos:station:WAVCIS:CSI06:1,2008-12-09T06:00:00Z,28.8667,-90.4833,1013.72,11111222 
WAVCIS,ioos:station:WAVCIS:CSI06:1,2008-12-09T07:00:00Z,28.8667,-90.4833,1012.78,11111222 
WAVCIS,ioos:station:WAVCIS:CSI06:1,2008-12-09T08:00:00Z,28.8667,-90.4833,1012.71,11111222 
WAVCIS,ioos:station:WAVCIS:CSI06:1,2008-12-09T09:00:00Z,28.8667,-90.4833,1012.2,11111222 
WAVCIS,ioos:station:WAVCIS:CSI06:1,2008-12-09T10:00:00Z,28.8667,-90.4833,1012.36,11111222 
WAVCIS,ioos:station:WAVCIS:CSI06:1,2008-12-09T11:00:00Z,28.8667,-90.4833,1011.75,11111222 
WAVCIS,ioos:station:WAVCIS:CSI06:1,2008-12-09T12:00:00Z,28.8667,-90.4833,1012.16,11111222 
WAVCIS,ioos:station:WAVCIS:CSI06:1,2008-12-09T13:00:00Z,28.8667,-90.4833,1012.61,11111222 
WAVCIS,ioos:station:WAVCIS:CSI06:1,2008-12-09T14:00:00Z,28.8667,-90.4833,1012.49,11111222 
WAVCIS,ioos:station:WAVCIS:CSI06:1,2008-12-09T15:00:00Z,28.8667,-90.4833,1012.58,11111222 
WAVCIS,ioos:station:WAVCIS:CSI06:1,2008-12-09T16:00:00Z,28.8667,-90.4833,1012.32,11111222 
WAVCIS,ioos:station:WAVCIS:CSI06:1,2008-12-09T17:00:00Z,28.8667,-90.4833,1011.95,11111222 
WAVCIS,ioos:station:WAVCIS:CSI06:1,2008-12-09T18:00:00Z,28.8667,-90.4833,1011.18,11111222 
WAVCIS,ioos:station:WAVCIS:CSI06:1,2008-12-09T19:00:00Z,28.8667,-90.4833,1010.5,11111222 
WAVCIS,ioos:station:WAVCIS:CSI06:1,2008-12-09T20:00:00Z,28.8667,-90.4833,1009.57,11111222 
WAVCIS,ioos:station:WAVCIS:CSI06:1,2008-12-09T21:00:00Z,28.8667,-90.4833,1009.2,11111222 
WAVCIS,ioos:station:WAVCIS:CSI06:1,2008-12-09T22:00:00Z,28.8667,-90.4833,1008.46,11111222 
WAVCIS,ioos:station:WAVCIS:CSI06:1,2008-12-09T23:00:00Z,28.8667,-90.4833,1007.84,11111222 
WAVCIS,ioos:station:WAVCIS:CSI06:1,2008-12-10T00:00:00Z,28.8667,-90.4833,1008.11,11111222 
WAVCIS,ioos:station:WAVCIS:CSI06:1,2008-12-10T01:00:00Z,28.8667,-90.4833,1008.67,11111222 
WAVCIS,ioos:station:WAVCIS:CSI06:1,2008-12-10T02:00:00Z,28.8667,-90.4833,1008.99,11111222 
WAVCIS,ioos:station:WAVCIS:CSI06:1,2008-12-10T03:00:00Z,28.8667,-90.4833,1009.6,11111222 
WAVCIS,ioos:station:WAVCIS:CSI06:1,2008-12-10T04:00:00Z,28.8667,-90.4833,1010.14,11111222 
WAVCIS,ioos:station:WAVCIS:CSI06:1,2008-12-10T05:00:00Z,28.8667,-90.4833,1010.15,11111222 
WAVCIS,ioos:station:WAVCIS:CSI06:1,2008-12-10T06:00:00Z,28.8667,-90.4833,1009.65,11111222 
WAVCIS,ioos:station:WAVCIS:CSI06:1,2008-12-10T07:00:00Z,28.8667,-90.4833,1009.31,11111222 
WAVCIS,ioos:station:WAVCIS:CSI06:1,2008-12-10T08:00:00Z,28.8667,-90.4833,1008.7,11111222 
WAVCIS,ioos:station:WAVCIS:CSI06:1,2008-12-10T09:00:00Z,28.8667,-90.4833,1007.48,11111222 
WAVCIS,ioos:station:WAVCIS:CSI06:1,2008-12-10T10:00:00Z,28.8667,-90.4833,1007.97,11111222 
WAVCIS,ioos:station:WAVCIS:CSI06:1,2008-12-10T11:00:00Z,28.8667,-90.4833,1007.76,11111222 
WAVCIS,ioos:station:WAVCIS:CSI06:1,2008-12-10T12:00:00Z,28.8667,-90.4833,1005.633,11111222 
WAVCIS,ioos:station:WAVCIS:CSI06:1,2008-12-10T13:00:00Z,28.8667,-90.4833,1007.081,11111222 
WAVCIS,ioos:station:WAVCIS:CSI06:1,2008-12-10T14:00:00Z,28.8667,-90.4833,1008.36,11111222 
WAVCIS,ioos:station:WAVCIS:CSI06:1,2008-12-10T15:00:00Z,28.8667,-90.4833,1009.79,11111222 
WAVCIS,ioos:station:WAVCIS:CSI06:1,2008-12-10T16:00:00Z,28.8667,-90.4833,1009.62,11111222 
WAVCIS,ioos:station:WAVCIS:CSI06:1,2008-12-10T17:00:00Z,28.8667,-90.4833,1010.7,11111222 
WAVCIS,ioos:station:WAVCIS:CSI06:1,2008-12-10T18:00:00Z,28.8667,-90.4833,1009.94,11111222 
WAVCIS,ioos:station:WAVCIS:CSI06:1,2008-12-10T19:00:00Z,28.8667,-90.4833,1010.08,11111222 
WAVCIS,ioos:station:WAVCIS:CSI06:1,2008-12-10T20:00:00Z,28.8667,-90.4833,1008.4,11111222 
WAVCIS,ioos:station:WAVCIS:CSI06:1,2008-12-10T21:00:00Z,28.8667,-90.4833,1009.34,11111222 
WAVCIS,ioos:station:WAVCIS:CSI06:1,2008-12-10T22:00:00Z,28.8667,-90.4833,1008.2,11111222 
WAVCIS,ioos:station:WAVCIS:CSI06:1,2008-12-10T23:00:00Z,28.8667,-90.4833,1010.1,11111222 
WAVCIS,ioos:station:WAVCIS:CSI06:1,2008-12-11T00:00:00Z,28.8667,-90.4833,1011.69,11111222 
WAVCIS,ioos:station:WAVCIS:CSI06:1,2008-12-11T01:00:00Z,28.8667,-90.4833,1011.28,11111222 
WAVCIS,ioos:station:WAVCIS:CSI06:1,2008-12-11T02:00:00Z,28.8667,-90.4833,1012.83,11111222 
WAVCIS,ioos:station:WAVCIS:CSI06:1,2008-12-11T03:00:00Z,28.8667,-90.4833,1012.12,11111222 
WAVCIS,ioos:station:WAVCIS:CSI06:1,2008-12-11T04:00:00Z,28.8667,-90.4833,1012.8,11111222 
WAVCIS,ioos:station:WAVCIS:CSI06:1,2008-12-11T05:00:00Z,28.8667,-90.4833,1011.21,11111222 
WAVCIS,ioos:station:WAVCIS:CSI06:1,2008-12-11T06:00:00Z,28.8667,-90.4833,1011.43,11111222 
WAVCIS,ioos:station:WAVCIS:CSI06:1,2008-12-11T07:00:00Z,28.8667,-90.4833,1010.66,11111222 
WAVCIS,ioos:station:WAVCIS:CSI06:1,2008-12-11T08:00:00Z,28.8667,-90.4833,1010.83,11111222 
WAVCIS,ioos:station:WAVCIS:CSI06:1,2008-12-11T09:00:00Z,28.8667,-90.4833,1010.38,11111222 
WAVCIS,ioos:station:WAVCIS:CSI06:1,2008-12-11T10:00:00Z,28.8667,-90.4833,1009.44,11111222 
WAVCIS,ioos:station:WAVCIS:CSI06:1,2008-12-11T11:00:00Z,28.8667,-90.4833,1009.53,11111222 
WAVCIS,ioos:station:WAVCIS:CSI06:1,2008-12-11T12:00:00Z,28.8667,-90.4833,1010.07,11111222 
WAVCIS,ioos:station:WAVCIS:CSI06:1,2008-12-11T13:00:00Z,28.8667,-90.4833,1010.79,11111222 
WAVCIS,ioos:station:WAVCIS:CSI06:1,2008-12-11T14:00:00Z,28.8667,-90.4833,1010.56,11111222 
WAVCIS,ioos:station:WAVCIS:CSI06:1,2008-12-11T15:00:00Z,28.8667,-90.4833,1011.15,11111222 
WAVCIS,ioos:station:WAVCIS:CSI06:1,2008-12-11T16:00:00Z,28.8667,-90.4833,1011.07,11111222 
WAVCIS,ioos:station:WAVCIS:CSI06:1,2008-12-11T17:00:00Z,28.8667,-90.4833,1011.59,11111222 
WAVCIS,ioos:station:WAVCIS:CSI06:1,2008-12-11T18:00:00Z,28.8667,-90.4833,1011.02,11111222 
WAVCIS,ioos:station:WAVCIS:CSI06:1,2008-12-11T19:00:00Z,28.8667,-90.4833,1010.6,11111222 
WAVCIS,ioos:station:WAVCIS:CSI06:1,2008-12-11T20:00:00Z,28.8667,-90.4833,1011.08,11111222 
WAVCIS,ioos:station:WAVCIS:CSI06:1,2008-12-11T21:00:00Z,28.8667,-90.4833,1011.33,11111222 
WAVCIS,ioos:station:WAVCIS:CSI06:1,2008-12-11T22:00:00Z,28.8667,-90.4833,1012.63,11111222 